[[{"header":{"parameterUnit":"m.s-1","parameterCategory":1,"la1":30.2991,"la2":30.254,"lo1":-89.0895,"lo2":-89.0444,"dy":0.0017,"dx":0.0017,"nx":28,"ny":28,"refTime":"2024-12-18T09:00:00:Z","depth":0,"parameterNumber":2,"parameterNumberName":"U-component_of_WINDS"},"data":[0,0,0,0,0,0,0,0,0,0,0,0,0,0,0,0,0,0,0,0,0,0,0,0,0,0,0,0,0,0,0,0,0,0,0,0,0,0,0,0,0,0,0,0,0,0,0,0,0,0,0,0,0,0,0,0,0,0,0.2887,0.2888,0,0.2922,0.2923,0.2923,0.2948,0.2948,0.2948,0.2949,0.2983,0.2984,0.2985,0,0,0,0,0,0,0,0,0,0,0,0,0,0.2841,0.2842,0.2887,0.2888,0.2888,0.2922,0.2923,0.2923,0.2948,0.2948,0.2948,0.2949,0.2983,0.2984,0.2985,0,0,0,0,0,0,0,0,0,0,0,0,0,0.2867,0.2842,0.2887,0.2905,0.2907,0.2922,0.2923,0.2923,0.2948,0.2948,0.2949,0.2949,0.2983,0.2984,0.2985,0.2986,0,0,0.2988,0.2989,0,0,0,0,0,0,0,0,0.2866,0.2869,0.2902,0.2904,0.2906,0.2931,0.2919,0.2944,0.2948,0.2932,0.2949,0.2949,0.2966,0.2968,0.2974,0.2987,0.2989,0.2988,0.2989,0.299,0.299,0,0,0,0,0,0,0,0.2864,0.2868,0.2901,0.2902,0.2905,0.2911,0.2915,0.2924,0.2947,0.2934,0.2936,0.2939,0.2967,0.2973,0.2975,0.2989,0.2988,0.2989,0.299,0.299,0.3004,0.3004,0,0,0,0,0,0,0.286,0.2866,0.29,0.2902,0.2886,0.2911,0.2916,0.2923,0.2947,0.2951,0.2939,0.294,0.2971,0.2974,0.2976,0.2978,0.299,0.2991,0.2991,0.3004,0.3004,0.3004,0,0,0,0,0,0,0.2858,0.2862,0.2899,0.2885,0.289,0.2912,0.2919,0.2923,0.2929,0.2951,0.2955,0.2941,0.2971,0.2975,0.2983,0.298,0.2991,0.2992,0.3005,0.3004,0.3004,0.2982,0,0,0,0,0,0,0.2857,0.2862,0.2863,0.2884,0.289,0.2905,0.2919,0.2924,0.2931,0.2933,0.2954,0.2958,0.2972,0.2981,0.2984,0.2982,0.2993,0.3005,0.3005,0.3004,0.2984,0.2981,0.2979,0,0,0,0,0,0.2855,0.2855,0.2862,0.2866,0.2892,0.2905,0.2908,0.2925,0.2931,0.2932,0.2945,0.2957,0.298,0.2982,0.2985,0.2983,0.3005,0.3005,0.3004,0.2984,0.2982,0.2979,0,0,0,0,0,0,0.2832,0.2858,0.2867,0.2873,0.2887,0.2909,0.291,0.2921,0.2933,0.2934,0.2954,0.2959,0.2965,0.2975,0.2977,0.2985,0.2994,0.2994,0.2978,0.2976,0.2974,0.2971,0.2994,0,0,0,0,0,0.2827,0.2836,0.2859,0.2862,0.2869,0.2888,0.2895,0.2906,0.2921,0.2926,0.2941,0.2954,0.2964,0.2971,0.2981,0.2985,0.299,0.2985,0.2983,0.2981,0.2981,0.2984,0.2982,0.3002,0.3002,0.3002,0,0,0.2818,0.2834,0.2838,0.2858,0.287,0.2878,0.2893,0.2901,0.2907,0.2928,0.2936,0.2947,0.2963,0.2969,0.2973,0.2978,0.2977,0.2981,0.2979,0.298,0.2983,0.2981,0.2979,0.3001,0.3001,0.3001,0,0,0.2806,0.2819,0.2823,0.2835,0.2852,0.2865,0.2866,0.2887,0.2895,0.2904,0.292,0.2927,0.2944,0.2955,0.2963,0.2954,0.2965,0.2957,0.2946,0.2949,0.2947,0.2946,0.2942,0.2941,0.2957,0.2957,0.2957,0,0.2793,0.2806,0.2824,0.2831,0.2839,0.2859,0.2863,0.2873,0.2893,0.2898,0.2904,0.2925,0.2938,0.2946,0.2944,0.295,0.2951,0.2955,0.2946,0.2945,0.2944,0.2941,0.294,0.2956,0.2956,0.2956,0.2956,0,0.2788,0.2797,0.2799,0.2818,0.2826,0.2832,0.285,0.2857,0.2867,0.288,0.2889,0.2904,0.2918,0.2921,0.2931,0.2931,0.2934,0.2942,0.2952,0.2941,0.2938,0.2937,0.2954,0.2955,0.2955,0.2955,0,0,0.2762,0.2791,0.2791,0.28,0.2821,0.2828,0.2834,0.2848,0.2853,0.2866,0.2871,0.2886,0.2894,0.2903,0.2915,0.2917,0.2908,0.2925,0.2926,0.2921,0.2908,0.2901,0.29,0.2916,0.2916,0.2916,0.2907,0,0.2753,0.2766,0.2782,0.2789,0.2797,0.2816,0.2821,0.2834,0.2846,0.2854,0.2867,0.2877,0.2887,0.2892,0.2895,0.2909,0.2906,0.291,0.2921,0.2921,0.2916,0.2898,0.2891,0.2882,0.2906,0.2906,0.2906,0,0.2743,0.2756,0.2764,0.2784,0.2788,0.2792,0.2806,0.2814,0.2829,0.2838,0.2847,0.286,0.2868,0.2877,0.2887,0.2889,0.2894,0.2902,0.2902,0.2903,0.2912,0.2899,0.2879,0.2878,0.2904,0.2904,0.2905,0,0.2723,0.2741,0.2749,0.2756,0.2779,0.2782,0.2792,0.2807,0.2814,0.2826,0.2831,0.2844,0.285,0.286,0.2876,0.2881,0.2884,0.2894,0.289,0.289,0.289,0.289,0.2871,0.2894,0.2894,0.2894,0.2894,0,0.271,0.2715,0.274,0.2744,0.2749,0.2768,0.2772,0.2784,0.2797,0.2804,0.282,0.2826,0.2847,0.2855,0.2867,0.2873,0.2876,0.2883,0.2886,0.2881,0.288,0.2885,0.2886,0.2894,0.2894,0.2894,0.2894,0,0.2688,0.2705,0.2714,0.2736,0.2741,0.2744,0.2762,0.2767,0.2779,0.2788,0.279,0.281,0.2821,0.2837,0.2853,0.2861,0.2865,0.287,0.2859,0.2861,0.2857,0.2857,0.284,0.2838,0.2863,0.2862,0.2862,0,0.2679,0.2683,0.2704,0.271,0.2719,0.2728,0.2736,0.2754,0.2761,0.2779,0.2781,0.2793,0.2803,0.2819,0.2834,0.2846,0.2851,0.2845,0.2853,0.2848,0.2851,0.285,0.285,0.2843,0.2842,0.2842,0.2842,0,0.2661,0.2669,0.2679,0.2692,0.2701,0.2712,0.2724,0.2728,0.2749,0.2756,0.2767,0.2774,0.279,0.2801,0.2815,0.2825,0.2836,0.2839,0.2839,0.2833,0.2827,0.283,0.2854,0.2839,0.2839,0.284,0.284,0.284,0.2644,0.2648,0.2664,0.2675,0.2686,0.2697,0.2702,0.2716,0.2725,0.2739,0.275,0.276,0.2774,0.2794,0.2803,0.2811,0.2816,0.2816,0.2816,0.2815,0.2813,0.2826,0.2814,0.2814,0.2814,0.2814,0.2814,0,0.2627,0.2638,0.2647,0.2664,0.2672,0.2683,0.2697,0.2703,0.2712,0.2724,0.2734,0.2746,0.2757,0.2774,0.2786,0.2789,0.2794,0.2791,0.2791,0.2793,0.2808,0.2807,0.2786,0.2786,0.2786,0.2786,0.2786,0.2786,0.2618,0.2625,0.2635,0.2648,0.2659,0.2669,0.2676,0.2686,0.2696,0.2709,0.2718,0.2729,0.2743,0.2756,0.2767,0.2771,0.2775,0.277,0.2776,0.2789,0.2792,0.2794,0.2793,0.277,0.277,0.276,0.276,0.276]},{"header":{"parameterUnit":"m.s-1","parameterCategory":1,"la1":30.2991,"la2":30.254,"lo1":-89.0895,"lo2":-89.0444,"dy":0.0017,"dx":0.0017,"nx":28,"ny":28,"refTime":"2024-12-18T09:00:00:Z","depth":0,"parameterNumber":3,"parameterNumberName":"V-component_of_WINDS"},"data":[0,0,0,0,0,0,0,0,0,0,0,0,0,0,0,0,0,0,0,0,0,0,0,0,0,0,0,0,0,0,0,0,0,0,0,0,0,0,0,0,0,0,0,0,0,0,0,0,0,0,0,0,0,0,0,0,0,0,-0.5296,-0.5297,0,-0.5374,-0.5375,-0.5375,-0.5358,-0.5356,-0.5355,-0.5353,-0.5435,-0.5439,-0.5442,0,0,0,0,0,0,0,0,0,0,0,0,0,-0.5136,-0.5139,-0.5296,-0.5297,-0.5298,-0.5374,-0.5375,-0.5376,-0.5358,-0.5356,-0.5354,-0.5353,-0.5434,-0.5438,-0.5443,0,0,0,0,0,0,0,0,0,0,0,0,0,-0.5209,-0.514,-0.5296,-0.5298,-0.5299,-0.5373,-0.5375,-0.5376,-0.5358,-0.5356,-0.5354,-0.5352,-0.5433,-0.5438,-0.5443,-0.552,0,0,-0.5459,-0.5462,0,0,0,0,0,0,0,0,-0.5205,-0.5215,-0.5297,-0.5298,-0.53,-0.5354,-0.5348,-0.5424,-0.5359,-0.5336,-0.5353,-0.5351,-0.541,-0.5417,-0.5437,-0.5524,-0.5528,-0.546,-0.5463,-0.5465,-0.5467,0,0,0,0,0,0,0,-0.52,-0.5212,-0.5327,-0.5298,-0.53,-0.5297,-0.5305,-0.5363,-0.5385,-0.5338,-0.5337,-0.5346,-0.541,-0.5432,-0.5438,-0.5529,-0.546,-0.5464,-0.5468,-0.547,-0.5685,-0.5687,0,0,0,0,0,0,-0.5194,-0.5208,-0.5325,-0.5329,-0.5246,-0.5301,-0.531,-0.5339,-0.5384,-0.5389,-0.5348,-0.5345,-0.5424,-0.5432,-0.5441,-0.5536,-0.5465,-0.547,-0.5473,-0.5683,-0.5686,-0.5688,0,0,0,0,0,0,-0.519,-0.5204,-0.5321,-0.5268,-0.5283,-0.5306,-0.5339,-0.5341,-0.5362,-0.5391,-0.5396,-0.5365,-0.5422,-0.5434,-0.5501,-0.5538,-0.5473,-0.5478,-0.568,-0.5684,-0.5687,-0.5725,0,0,0,0,0,0,-0.5186,-0.5203,-0.5232,-0.5269,-0.5286,-0.5379,-0.5341,-0.5345,-0.5371,-0.5368,-0.5409,-0.5413,-0.5421,-0.5493,-0.5506,-0.5544,-0.5482,-0.5676,-0.5681,-0.5686,-0.572,-0.5729,-0.5737,0,0,0,0,0,-0.518,-0.524,-0.5233,-0.5248,-0.5322,-0.5381,-0.5391,-0.5398,-0.5374,-0.5404,-0.5423,-0.5412,-0.5532,-0.55,-0.5515,-0.5555,-0.5674,-0.568,-0.5685,-0.5717,-0.5728,-0.5737,0,0,0,0,0,0,-0.5207,-0.5245,-0.5238,-0.5311,-0.5343,-0.5378,-0.5416,-0.5409,-0.5449,-0.5445,-0.5452,-0.5462,-0.5531,-0.5549,-0.5513,-0.5633,-0.56,-0.5609,-0.5618,-0.5629,-0.5637,-0.5632,-0.5486,0,0,0,0,0,-0.5221,-0.5265,-0.5296,-0.5358,-0.5374,-0.5392,-0.5418,-0.5421,-0.5455,-0.5468,-0.5492,-0.5526,-0.5571,-0.5601,-0.5644,-0.5722,-0.5732,-0.5758,-0.5766,-0.5773,-0.5781,-0.5825,-0.5837,-0.5707,-0.5707,-0.5707,0,0,-0.5252,-0.5278,-0.5305,-0.5364,-0.5389,-0.5436,-0.5404,-0.5454,-0.5489,-0.5476,-0.5541,-0.556,-0.5598,-0.5672,-0.5705,-0.569,-0.5819,-0.578,-0.5785,-0.579,-0.5832,-0.5844,-0.5855,-0.5711,-0.571,-0.571,0,0,-0.5332,-0.5355,-0.5409,-0.5435,-0.5473,-0.5485,-0.5498,-0.5534,-0.5546,-0.5611,-0.5603,-0.5645,-0.5722,-0.575,-0.5775,-0.5866,-0.5858,-0.5879,-0.5924,-0.5967,-0.5977,-0.5986,-0.602,-0.6032,-0.5887,-0.5887,-0.5887,0,-0.5365,-0.5434,-0.5439,-0.549,-0.5517,-0.5506,-0.5562,-0.5587,-0.5638,-0.5657,-0.5638,-0.5736,-0.5761,-0.5842,-0.5864,-0.5883,-0.59,-0.5875,-0.5975,-0.5984,-0.5993,-0.6025,-0.6038,-0.589,-0.5889,-0.5889,-0.5889,0,-0.5474,-0.5522,-0.5561,-0.561,-0.5641,-0.5695,-0.5709,-0.574,-0.574,-0.5754,-0.5821,-0.585,-0.59,-0.5919,-0.592,-0.6,-0.599,-0.5973,-0.594,-0.6008,-0.6039,-0.6051,-0.5893,-0.5892,-0.5891,-0.5891,0,0,-0.5574,-0.5624,-0.5639,-0.5661,-0.5702,-0.574,-0.5794,-0.5841,-0.5869,-0.5904,-0.595,-0.6016,-0.6001,-0.6029,-0.6032,-0.607,-0.6142,-0.6049,-0.605,-0.6066,-0.6234,-0.6247,-0.6262,-0.6136,-0.6138,-0.614,-0.6231,0,-0.5658,-0.5752,-0.5758,-0.5843,-0.5888,-0.5879,-0.5926,-0.5957,-0.5971,-0.6013,-0.6029,-0.6076,-0.6052,-0.6069,-0.6106,-0.6125,-0.6176,-0.6118,-0.6181,-0.6183,-0.6173,-0.6277,-0.6292,-0.6376,-0.6243,-0.6245,-0.6247,0,-0.5769,-0.5807,-0.5897,-0.5933,-0.5952,-0.5994,-0.6039,-0.6078,-0.6113,-0.6121,-0.6152,-0.6151,-0.6207,-0.6171,-0.6249,-0.621,-0.6236,-0.625,-0.6253,-0.626,-0.622,-0.6289,-0.6403,-0.6417,-0.6265,-0.6264,-0.6263,0,-0.5835,-0.5909,-0.5972,-0.5991,-0.6034,-0.6064,-0.6084,-0.6117,-0.6145,-0.6185,-0.6204,-0.6249,-0.6275,-0.631,-0.6322,-0.6294,-0.64,-0.6365,-0.641,-0.641,-0.6434,-0.6433,-0.6555,-0.6448,-0.6448,-0.6447,-0.6447,0,-0.593,-0.5985,-0.6002,-0.6042,-0.6104,-0.6111,-0.6173,-0.619,-0.622,-0.6263,-0.6258,-0.6299,-0.631,-0.6354,-0.6363,-0.6428,-0.6439,-0.6448,-0.645,-0.6449,-0.6448,-0.6467,-0.6462,-0.6451,-0.645,-0.6449,-0.6449,0,-0.6014,-0.6028,-0.6097,-0.6131,-0.6141,-0.6186,-0.6216,-0.6255,-0.6268,-0.6323,-0.6337,-0.6359,-0.6409,-0.6424,-0.6485,-0.6491,-0.6567,-0.6563,-0.6555,-0.6556,-0.6601,-0.6597,-0.6741,-0.6761,-0.6639,-0.664,-0.6641,0,-0.6074,-0.6117,-0.6156,-0.6185,-0.6205,-0.6251,-0.628,-0.6288,-0.6319,-0.6363,-0.6396,-0.6446,-0.6487,-0.6569,-0.6591,-0.6638,-0.6636,-0.6683,-0.6643,-0.6641,-0.6639,-0.6637,-0.6642,-0.6691,-0.6693,-0.6694,-0.6695,0,-0.6181,-0.6185,-0.6227,-0.6272,-0.6306,-0.6342,-0.6376,-0.64,-0.6413,-0.6448,-0.65,-0.6531,-0.6594,-0.6644,-0.6692,-0.6713,-0.6707,-0.6707,-0.672,-0.6721,-0.6715,-0.672,-0.6578,-0.6704,-0.6703,-0.6702,-0.6702,-0.6701,-0.6256,-0.6294,-0.6328,-0.6375,-0.6401,-0.6433,-0.6471,-0.649,-0.6533,-0.6584,-0.6586,-0.6643,-0.6678,-0.6741,-0.6764,-0.681,-0.6796,-0.6814,-0.682,-0.6825,-0.6829,-0.6706,-0.6818,-0.6818,-0.6818,-0.6817,-0.6817,0,-0.6364,-0.6385,-0.6428,-0.6476,-0.6513,-0.6502,-0.654,-0.6572,-0.6622,-0.6655,-0.6695,-0.6755,-0.6803,-0.6829,-0.6878,-0.6909,-0.6908,-0.6922,-0.6921,-0.6926,-0.6838,-0.6822,-0.6922,-0.6922,-0.6922,-0.6922,-0.6922,-0.6922,-0.6424,-0.6488,-0.6497,-0.6574,-0.6595,-0.665,-0.6672,-0.6702,-0.6729,-0.6796,-0.6836,-0.6852,-0.6882,-0.6933,-0.6978,-0.6985,-0.7004,-0.702,-0.7025,-0.6942,-0.6932,-0.6922,-0.6907,-0.7023,-0.7023,-0.7109,-0.711,-0.711]}]]